TimeEDT,TemperatureF,Dew PointF,Humidity,Sea Level PressureIn,VisibilityMPH,Wind Direction,Wind SpeedMPH,Gust SpeedMPH,PrecipitationIn,Events,Conditions,WindDirDegrees,DateUTC
12:40 AM,73.4,69.8,88,30.06,10.0,SW,6.9,-,N/A,Thunderstorm,Overcast,220,2013-08-01 04:40:00
12:53 AM,73.0,69.1,87,30.01,10.0,SW,3.5,-,N/A,Thunderstorm,Mostly Cloudy,230,2013-08-01 04:53:00
1:06 AM,71.6,69.8,94,30.04,10.0,SW,5.8,-,N/A,,Mostly Cloudy,230,2013-08-01 05:06:00
1:31 AM,71.6,69.8,94,30.04,10.0,Calm,Calm,-,0.01,Rain-Thunderstorm,Light Rain,0,2013-08-01 05:31:00
1:53 AM,72.0,69.1,91,29.98,10.0,SW,4.6,-,0.01,Rain-Thunderstorm,Light Rain,220,2013-08-01 05:53:00
2:07 AM,71.6,69.8,94,30.03,3.0,SSW,4.6,-,0.05,Rain,Heavy Rain,200,2013-08-01 06:07:00
2:20 AM,71.6,69.8,94,30.03,4.0,SSW,3.5,-,0.09,Rain,Rain,210,2013-08-01 06:20:00
2:40 AM,71.6,69.8,94,30.04,4.0,Calm,Calm,-,0.14,Rain,Rain,0,2013-08-01 06:40:00
2:53 AM,72.0,70.0,93,29.99,3.0,SW,4.6,-,0.18,Rain-Thunderstorm,Heavy Rain,230,2013-08-01 06:53:00
2:56 AM,71.6,69.8,94,30.03,2.0,SW,5.8,-,0.02,Rain-Thunderstorm,Heavy Rain,230,2013-08-01 06:56:00
3:02 AM,71.6,69.8,94,30.03,2.5,WSW,6.9,-,0.04,Rain,Rain,240,2013-08-01 07:02:00
3:08 AM,71.6,69.8,94,30.03,3.0,WSW,6.9,-,0.07,Rain,Heavy Rain,250,2013-08-01 07:08:00
3:11 AM,71.6,69.8,94,30.03,2.5,WSW,4.6,-,0.08,Rain,Rain,250,2013-08-01 07:11:00
3:14 AM,71.6,69.8,94,30.03,3.0,WSW,6.9,-,0.09,Rain,Rain,250,2013-08-01 07:14:00
3:16 AM,71.6,69.8,94,30.03,3.0,WSW,6.9,-,0.10,Rain-Thunderstorm,Thunderstorms and Rain,250,2013-08-01 07:16:00
3:30 AM,71.6,69.8,94,30.02,3.0,SW,4.6,-,0.15,Rain,Heavy Rain,220,2013-08-01 07:30:00
3:38 AM,71.6,69.8,94,30.02,2.5,WSW,6.9,-,0.19,Rain,Rain,250,2013-08-01 07:38:00
3:45 AM,71.6,69.8,94,30.02,3.0,SW,6.9,-,0.21,Rain,Rain,230,2013-08-01 07:45:00
3:53 AM,71.1,69.1,93,29.97,4.0,SW,8.1,-,0.23,Rain,Rain,230,2013-08-01 07:53:00
4:53 AM,70.0,66.9,90,29.96,10.0,WNW,5.8,-,0.03,Rain,Light Rain,300,2013-08-01 08:53:00
5:04 AM,69.8,66.2,88,30.00,10.0,WNW,5.8,-,0.00,Rain,Light Rain,290,2013-08-01 09:04:00
5:21 AM,69.8,66.2,88,30.00,10.0,WNW,5.8,-,0.00,,Overcast,300,2013-08-01 09:21:00
5:53 AM,69.1,66.9,93,29.97,7.0,WSW,5.8,-,0.03,Rain,Light Rain,240,2013-08-01 09:53:00
6:42 AM,69.8,66.2,88,30.02,10.0,West,3.5,-,0.03,Rain,Light Rain,280,2013-08-01 10:42:00
6:53 AM,69.1,66.9,93,29.98,10.0,WNW,3.5,-,0.03,Rain,Light Rain,300,2013-08-01 10:53:00
7:17 AM,69.8,66.2,88,30.02,10.0,Calm,Calm,-,0.00,,Overcast,0,2013-08-01 11:17:00
7:37 AM,71.6,68.0,88,30.03,7.0,WSW,4.6,-,0.00,,Overcast,250,2013-08-01 11:37:00
7:53 AM,71.1,69.1,93,29.99,7.0,SW,4.6,-,0.00,,Overcast,230,2013-08-01 11:53:00
8:09 AM,71.6,69.8,94,30.02,7.0,WSW,6.9,-,N/A,,Overcast,240,2013-08-01 12:09:00
8:21 AM,71.6,69.8,94,30.02,7.0,WSW,6.9,-,N/A,,Overcast,250,2013-08-01 12:21:00
8:40 AM,71.6,69.8,94,30.03,8.0,WSW,8.1,-,N/A,,Overcast,250,2013-08-01 12:40:00
8:53 AM,72.0,69.1,91,29.99,8.0,West,6.9,-,N/A,,Overcast,280,2013-08-01 12:53:00
9:53 AM,73.0,69.1,87,29.99,7.0,WSW,9.2,-,N/A,,Overcast,250,2013-08-01 13:53:00
10:53 AM,75.9,70.0,82,29.99,10.0,West,10.4,-,N/A,,Overcast,280,2013-08-01 14:53:00
11:53 AM,78.1,69.1,74,29.99,10.0,NW,10.4,-,N/A,,Overcast,310,2013-08-01 15:53:00
12:36 PM,78.8,69.8,74,30.02,10.0,Variable,6.9,-,N/A,,Scattered Clouds,0,2013-08-01 16:36:00
12:43 PM,78.8,69.8,74,30.02,10.0,West,8.1,-,N/A,,Mostly Cloudy,260,2013-08-01 16:43:00
12:53 PM,78.1,69.1,74,29.98,10.0,WSW,8.1,-,N/A,,Mostly Cloudy,240,2013-08-01 16:53:00
1:53 PM,82.0,71.1,69,29.96,10.0,West,8.1,-,N/A,,Partly Cloudy,270,2013-08-01 17:53:00
2:24 PM,80.6,69.8,70,30.00,10.0,West,4.6,-,N/A,,Mostly Cloudy,260,2013-08-01 18:24:00
2:53 PM,82.9,70.0,65,29.94,10.0,Variable,5.8,16.1,N/A,,Scattered Clouds,0,2013-08-01 18:53:00
3:53 PM,84.0,70.0,63,29.92,10.0,WSW,6.9,-,N/A,,Clear,250,2013-08-01 19:53:00
4:53 PM,84.0,72.0,67,29.92,10.0,SW,6.9,-,N/A,,Partly Cloudy,230,2013-08-01 20:53:00
5:53 PM,84.9,69.1,59,29.91,10.0,West,9.2,17.3,N/A,,Scattered Clouds,260,2013-08-01 21:53:00
6:53 PM,78.1,70.0,76,29.92,10.0,WSW,5.8,-,0.00,,Partly Cloudy,250,2013-08-01 22:53:00
7:53 PM,80.1,70.0,71,29.93,10.0,West,4.6,-,N/A,,Clear,270,2013-08-01 23:53:00
8:53 PM,78.1,69.1,74,29.95,10.0,WNW,3.5,-,N/A,,Clear,300,2013-08-02 00:53:00
9:53 PM,75.9,68.0,76,29.96,10.0,WNW,4.6,-,N/A,,Clear,300,2013-08-02 01:53:00
10:53 PM,75.0,66.9,76,29.96,10.0,NW,5.8,-,N/A,,Clear,310,2013-08-02 02:53:00
11:53 PM,73.9,66.9,79,29.96,10.0,NNW,4.6,-,N/A,,Clear,330,2013-08-02 03:53:00